x

Ilm2 - 5 Miles Se Of Wrightsville Beach, Nc (41038) Weather Station

5:08pm - Sat 1st Aug 2015 All times are EDT. -4 hours from GMT.

  • Wind
    18mph, 27mph gusts
  • Sea Temp 83°f
  • 空気 Temp 82°f
  • Sea Pressure 1011.9mb
  • Ilm2 - 5 Miles Se Of Wrightsville Beach, Nc
  • Ilm2 - 5 Miles Se Of Wrightsville Beach, Nc

More Historic Weather Station data

Upgrade to MSW Pro to gain access to the past 30 days of data for over 8000 Wavebouys and Weather Stations around the globe.

Join Pro

Comparision Forecast

View Surf forecast
   
Sat 08/01 5:08pm 18 27 mph 1011.9mb 83f 82f
4:53pm 16 20 mph 1012mb 83f 82f
4:38pm 18 22 mph 1011.8mb 83f 82f
4:23pm 18 25 mph 1012.1mb 83f 82f
4:08pm 18 25 mph 1012.1mb 83f 82f
3:08pm 18 22 mph 1012.7mb 83f 82f
2:53pm 16 20 mph 1012.8mb 83f 82f
2:38pm 16 18 mph 1012.8mb 83f 82f
2:23pm 13 18 mph 1012.8mb 83f 82f
2:08pm 13 16 mph 1013mb 83f 82f
1:53pm 11 16 mph 1013.3mb 83f 82f
1:38pm 11 16 mph 1013.5mb 83f 81f
1:23pm 11 16 mph 1013.6mb 83f 81f
1:08pm 9 13 mph 1013.7mb 83f 82f
12:53pm 9 11 mph 1013.8mb 83f 82f
12:38pm 9 11 mph 1013.8mb 83f 82f
12:23pm 7 11 mph 1014mb 83f 82f
12:08pm 7 11 mph 1014mb 83f 81f
11:53am 4 9 mph 1014.2mb 83f 81f
11:38am 4 7 mph 1014.3mb 83f 82f
11:23am 4 7 mph 1014.3mb 83f 82f
11:08am 7 9 mph 1014mb 83f 81f
10:53am 7 9 mph 1013.9mb 83f 81f
10:38am 4 9 mph 1014mb 83f 81f
10:23am 4 7 mph 1013.8mb 83f 80f
10:08am 2 7 mph 1013.7mb 83f 80f
9:53am 2 7 mph 1013.6mb 83f 80f
9:38am 2 4 mph 1013.5mb 83f 80f
9:23am 4 7 mph 1013.4mb 83f 80f
9:08am 4 7 mph 1013.5mb 83f 79f
8:53am 4 9 mph 1013.3mb 83f 79f
8:38am 7 11 mph 1013mb 83f 79f
8:23am 7 11 mph 1013mb 83f 80f
8:08am 7 9 mph 1012.8mb 83f 80f
7:53am 4 7 mph 1012.6mb 83f 80f
7:38am 4 9 mph 1012.6mb 83f 79f
7:23am 4 9 mph 1012.8mb 83f 79f
7:08am 4 9 mph 1013mb 83f 79f
6:53am 4 9 mph 1012.8mb 83f 80f
6:38am 7 9 mph 1012.7mb 83f 80f
6:23am 4 9 mph 1012.8mb 83f 80f
6:08am 7 9 mph 1012.6mb 83f 80f
5:53am 7 11 mph 1012.4mb 83f 80f
5:38am 7 9 mph 1012.4mb 83f 80f
5:23am 7 9 mph 1012.1mb 83f 80f
5:08am 7 9 mph 1011.9mb 83f 80f
4:53am 7 11 mph 1012mb 83f 80f
4:38am 7 9 mph 1012.3mb 83f 80f
4:23am 7 9 mph 1012.6mb 83f 80f
4:08am 9 11 mph 1012.3mb 83f 80f
3:53am 9 13 mph 1012.1mb 83f 80f
3:38am 7 9 mph 1012.1mb 83f 80f
3:23am 4 9 mph 1013.1mb 83f 79f
3:08am 4 9 mph 1011.7mb 83f 78f
2:53am 4 9 mph 1011.5mb 83f 78f
2:38am 7 13 mph 1013.2mb 83f 79f
2:23am 7 18 mph 1011.9mb 83f 78f
2:08am 9 13 mph 1013.1mb 83f 81f
1:53am 4 11 mph 1013.3mb 83f 81f
1:38am 7 9 mph 1013.4mb 83f 81f
1:23am 7 13 mph 1013.5mb 83f 81f
12:08am 7 9 mph 1013.2mb 83f 82f
Fri 07/31 11:53pm 4 9 mph 1013.3mb 83f 82f
11:38pm 4 9 mph 1013.3mb 83f 82f
11:23pm 7 11 mph 1013.2mb 83f 82f
11:08pm 7 11 mph 1013.4mb 83f 82f
10:53pm 9 13 mph 1013.6mb 83f 81f
10:38pm 11 16 mph 1013.5mb 83f 81f
10:23pm 11 16 mph 1013.3mb 83f 81f
10:08pm 11 13 mph 1013.4mb 83f 81f
9:53pm 11 13 mph 1013.5mb 83f 81f
9:38pm 13 16 mph 1013.4mb 83f 82f
9:23pm 11 13 mph 1013mb 83f 81f
9:08pm 9 13 mph 1012.7mb 83f 81f
8:53pm 11 16 mph 1012.5mb 83f 80f
8:38pm 11 13 mph 1012.5mb 83f 80f
8:23pm 13 18 mph 1011.4mb 83f 80f
8:08pm 18 22 mph 1012mb 83f 80f
7:53pm 16 20 mph 1012mb 83f 80f
7:38pm 20 27 mph 1012.6mb 83f 81f
6:08pm 16 20 mph 1011.6mb 83f 83f
5:53pm 13 18 mph 1011.5mb 84f 83f
5:38pm 16 18 mph 1011.4mb 84f 83f
5:23pm 13 16 mph 1011.3mb 84f 84f
5:08pm 9 13 mph 1011.5mb 84f 84f
4:53pm 9 13 mph 1011.5mb 84f 83f
4:38pm 9 13 mph 1011.8mb 84f 84f
4:23pm 11 13 mph 1011.8mb 84f 84f
4:08pm 9 11 mph 1012mb 84f 84f
3:53pm 11 13 mph 1012mb 84f 84f
3:38pm 11 13 mph 1012.2mb 84f 84f
3:23pm 11 13 mph 1012.5mb 84f 84f
3:08pm 11 16 mph 1012.7mb 84f 83f
2:53pm 9 13 mph 1012.9mb 84f 84f
2:08pm 7 9 mph 1012.7mb 83f 85f
1:53pm 2 4 mph 1012.7mb 84f 85f
1:38pm 2 4 mph 1012.7mb 84f 84f
1:23pm 2
mph
1012.9mb 84f 84f
1:08pm 2 4 mph 1012.9mb 84f 84f
12:53pm 2
mph
1013.2mb 83f 85f
12:38pm 4 7 mph 1013.4mb 83f 83f
12:23pm 7 9 mph 1013.5mb 83f 83f
12:08pm 4 7 mph 1013.7mb 83f 83f
11:53am 2 4 mph 1013.7mb 83f 85f
11:38am 2
mph
1013.7mb 83f 84f
11:23am 2 4 mph 1013.5mb 83f 83f
11:08am 2 4 mph 1013.3mb 83f 82f
10:53am 4 7 mph 1012.9mb 83f 82f
10:38am 4 9 mph 1012.6mb 83f 82f
10:23am 7 9 mph 1012.4mb 83f 81f
10:08am 7 9 mph 1012.3mb 83f 81f
9:53am 7 11 mph 1012.2mb 83f 81f
9:38am 7 11 mph 1012.3mb 83f 81f
9:23am 7 9 mph 1012.7mb 83f 81f
9:08am 9 11 mph 1012.9mb 83f 81f
8:53am 7 11 mph 1012.9mb 82f 81f
8:38am 7 9 mph 1012.8mb 82f 81f
8:23am 4 7 mph 1012.6mb 82f 81f
8:08am 7 9 mph 1012.3mb 82f 81f
7:53am 4 7 mph 1012.4mb 82f 81f
7:38am 4 7 mph 1012.3mb 82f 81f
7:23am 7 9 mph 1012.3mb 82f 81f
7:08am 4 9 mph 1012.2mb 82f 81f
6:53am 4 7 mph 1012.2mb 82f 81f
6:38am 4 9 mph 1012.1mb 82f 81f
6:23am 4 7 mph 1011.8mb 82f 81f
6:08am 7 9 mph 1011.7mb 83f 81f
5:53am 7 11 mph 1011.4mb 83f 81f
5:38am 4 9 mph 1011.4mb 83f 81f
5:23am 4 7 mph 1011.3mb 83f 81f
5:08am 4 7 mph 1011.2mb 83f 81f
4:53am 4 7 mph 1011.1mb 83f 81f
4:38am 4 7 mph 1011.1mb 83f 81f
4:23am 4 7 mph 1011.1mb 83f 81f
4:08am 4 7 mph 1011mb 83f 81f
3:53am 4 7 mph 1011mb 83f 81f
3:38am 4 9 mph 1011.1mb 83f 81f
3:23am 7 9 mph 1011.2mb 83f 81f
3:08am 7 9 mph 1011.3mb 83f 81f
2:53am 7 9 mph 1011.5mb 83f 81f
2:38am 7 9 mph 1011.3mb 83f 81f
2:23am 7 11 mph 1011.4mb 83f 81f
2:08am 9 11 mph 1011.6mb 83f 81f
1:53am 9 11 mph 1011.5mb 83f 82f
1:38am 9 11 mph 1011.7mb 83f 82f
1:23am 9 11 mph 1011.7mb 83f 82f
1:08am 9 11 mph 1012mb 83f 82f
12:53am 7 9 mph 1012.2mb 83f 82f
12:38am 7 9 mph 1012.4mb 83f 82f
12:23am 4 9 mph 1012.6mb 83f 82f
12:08am 4 7 mph 1012.6mb 83f 82f
Thu 07/30 11:53pm 4 7 mph 1012.6mb 83f 82f
11:38pm 4 7 mph 1012.6mb 83f 82f
11:23pm 2 4 mph 1012.6mb 83f 83f
11:08pm 4 7 mph 1012.6mb 83f 83f
10:53pm 4 9 mph 1012.8mb 83f 83f
10:38pm 7 9 mph 1012.7mb 83f 83f
10:23pm 7 11 mph 1012.6mb 83f 83f
10:08pm 7 11 mph 1012.6mb 83f 83f
9:53pm 7 11 mph 1012.4mb 83f 83f
9:38pm 7 11 mph 1012.3mb 83f 83f
9:23pm 7 11 mph 1012.1mb 83f 83f
9:08pm 7 11 mph 1011.9mb 83f 83f
8:08pm 9 13 mph 1011.2mb 83f 83f
7:53pm 11 13 mph 1011.2mb 83f 83f
7:38pm 11 13 mph 1011.2mb 83f 83f
7:23pm 11 16 mph 1011.1mb 83f 83f
7:08pm 11 16 mph 1011.1mb 83f 83f
6:53pm 11 13 mph 1011.1mb 83f 84f
6:38pm 11 13 mph 1010.9mb 83f 83f
6:23pm 13 16 mph 1010.8mb 83f 83f
6:08pm 11 16 mph 1011.2mb 83f 83f
5:53pm 11 13 mph 1011.2mb 83f 83f
5:38pm 11 16 mph 1011mb 84f 83f
5:23pm 11 13 mph 1011.1mb 84f 83f
5:08pm 9 13 mph 1011mb 84f 83f
4:53pm 9 11 mph 1011.3mb 84f 83f
4:38pm 9 11 mph 1011.3mb 84f 83f
4:23pm 9 11 mph 1011.6mb 84f 83f
4:08pm 7 9 mph 1011.7mb 84f 83f
3:53pm 9 11 mph 1011.8mb 84f 83f
3:38pm 7 11 mph 1012.1mb 84f 83f
3:23pm 4 9 mph 1012.3mb 84f 82f
3:08pm 4 7 mph 1012.5mb 84f 82f
2:53pm 7 9 mph 1012.7mb 84f 82f
2:38pm 7 9 mph 1013mb - 82f
2:23pm 9 11 mph 1013.2mb 84f 82f
2:08pm 9 11 mph 1013.4mb 84f 82f
1:53pm 7 9 mph 1013.6mb 84f 82f
1:38pm 7 9 mph 1013.8mb 84f 82f
1:23pm 7 9 mph 1014mb 84f 82f
1:08pm 7 9 mph 1014mb 84f 82f
12:53pm 7 9 mph 1014.1mb 83f 82f
12:38pm 4 7 mph 1014.3mb 83f 82f
12:23pm 4 7 mph 1014.3mb 83f 82f
12:08pm 7 9 mph 1014.4mb 83f 81f
11:53am 7 9 mph 1014.6mb 83f 81f
11:38am 7 9 mph 1014.5mb 83f 81f
11:23am 4 7 mph 1014.5mb 83f 81f
11:08am 4 7 mph 1014.5mb 82f 80f
10:53am 4 7 mph 1014.5mb 82f 80f
10:38am 4 7 mph 1014.6mb 82f 80f
10:23am 4 7 mph 1014.3mb 82f 79f
10:08am 7 9 mph 1014.3mb 82f 79f
9:53am 7 9 mph 1014.4mb 82f 78f
9:08am 7 9 mph 1014.2mb 82f 78f
8:53am 9 11 mph 1014mb 82f 78f
8:38am 7 11 mph 1013.9mb 82f 79f
8:23am 9 11 mph 1014mb 82f 78f
8:08am 9 13 mph 1013.7mb 82f 78f
7:53am 9 11 mph 1013.7mb 82f 78f
7:38am 9 13 mph 1013.5mb 82f 77f
7:23am 11 13 mph 1013.5mb 82f 77f
7:08am 11 13 mph 1013.5mb 82f 77f
6:53am 11 16 mph 1013.1mb 82f 77f
6:38am 9 13 mph 1013.2mb 82f 77f
6:23am 9 11 mph 1013.1mb 82f 77f
6:08am 9 11 mph 1013.2mb 82f 78f
5:53am 9 11 mph 1013.1mb 82f 79f
5:38am 11 13 mph 1012.9mb 82f 79f
5:23am 11 13 mph 1012.8mb 82f 80f
5:08am 11 13 mph 1012.9mb 82f 79f
4:53am 9 13 mph 1013mb 82f 79f
4:38am 9 13 mph 1013.1mb 82f 79f
4:23am 9 13 mph 1013mb 82f 79f
4:08am 9 13 mph 1013.3mb 82f 79f
3:53am 9 11 mph 1013.3mb 82f 79f
3:38am 9 11 mph 1013.4mb 82f 79f
3:23am 9 13 mph 1013.6mb 82f 79f
3:08am 9 13 mph 1013.6mb 82f 79f
2:53am 11 16 mph 1013.7mb 82f 79f
2:38am 11 13 mph 1013.8mb 82f 79f
2:23am 11 16 mph 1013.8mb 82f 79f
2:08am 9 13 mph 1014mb 82f 81f
1:53am 9 13 mph 1014.4mb 82f 81f
1:08am 13 16 mph 1014.5mb 82f 81f
12:53am 13 18 mph 1014.4mb 82f 81f
Wed 07/29 11:53pm 16 20 mph 1014.2mb 82f 81f
11:08pm 13 18 mph 1014.6mb 82f 82f
10:53pm 13 18 mph 1014.7mb 82f 82f
10:38pm 13 18 mph 1014.8mb 82f 82f
10:23pm 16 20 mph 1014.7mb 82f 82f
10:08pm 13 20 mph 1014.6mb 82f 82f
9:53pm 16 20 mph 1014.4mb 82f 82f
9:38pm 16 20 mph 1014.5mb 82f 82f
9:23pm 16 20 mph 1014.4mb 82f 82f
9:08pm 16 22 mph 1014mb 82f 82f
8:53pm 16 20 mph 1014mb 82f 82f
8:38pm 16 20 mph 1014mb 82f 82f
8:23pm 16 20 mph 1014mb 82f 82f
8:08pm 16 22 mph 1013.8mb 82f 82f
7:53pm 16 22 mph 1013.9mb 82f 82f
7:38pm 16 22 mph 1013.6mb 82f 82f
7:23pm 16 22 mph 1013.7mb 82f 82f
7:08pm 13 20 mph 1013.7mb 82f 82f
6:53pm 16 20 mph 1013.7mb 82f 82f
6:38pm 16 22 mph 1013.8mb 82f 82f
6:23pm 16 20 mph 1013.9mb 82f 82f
6:08pm 16 20 mph 1013.9mb 82f 82f
5:53pm 16 20 mph 1013.8mb 82f 82f
5:38pm 16 20 mph 1013.8mb 82f 82f
5:23pm 16 22 mph 1014mb 82f 82f
5:08pm 16 20 mph 1014mb 82f 82f
4:53pm 16 20 mph 1014.1mb 82f 82f
4:08pm 13 18 mph 1014.6mb 82f 82f
3:53pm 13 18 mph 1014.9mb 82f 82f
3:38pm 13 16 mph 1015.1mb 82f 82f
3:23pm 11 16 mph 1015.2mb 82f 82f
3:08pm 11 16 mph 1015mb 82f 82f
2:53pm 11 16 mph 1015.3mb 82f 82f
2:38pm 13 18 mph 1015.2mb 82f 82f
2:23pm 13 16 mph 1015.2mb 82f 82f
2:08pm 13 18 mph 1015.3mb 82f 82f
1:53pm 11 16 mph 1015.6mb 82f 82f
1:38pm 11 16 mph 1015.7mb 82f 82f
1:23pm 11 16 mph 1015.9mb 82f 82f
1:08pm 13 16 mph 1016mb 82f 82f
12:53pm 13 16 mph 1016.1mb 82f 82f
11:53am 11 16 mph 1016.3mb 82f 82f
11:38am 11 16 mph 1016.4mb 82f 82f
11:23am 13 16 mph 1016.2mb 82f 82f
11:08am 13 18 mph 1016.3mb 82f 82f
10:53am 13 16 mph 1016.1mb 82f 82f
10:38am 11 16 mph 1015.9mb 82f 82f
10:23am 13 16 mph 1016mb 82f 82f
10:08am 11 16 mph 1016mb 82f 82f
9:53am 11 16 mph 1015.9mb 82f 82f
9:38am 13 18 mph 1015.9mb 82f 82f
9:23am 13 18 mph 1015.7mb 82f 82f
9:08am 13 18 mph 1015.4mb 82f 82f
8:53am 13 16 mph 1015.3mb 82f 82f
8:38am 13 18 mph 1015.1mb 82f 82f
8:23am 13 18 mph 1015.1mb 82f 81f
8:08am 13 18 mph 1014.9mb 82f 81f
7:53am 13 18 mph 1014.8mb 82f 81f
7:38am 13 18 mph 1014.7mb 81f 81f
7:23am 13 18 mph 1014.7mb 81f 81f
7:08am 13 18 mph 1014.8mb 81f 81f
6:53am 13 18 mph 1014.7mb 81f 81f
6:08am 11 16 mph 1014.6mb 81f 81f
5:53am 13 18 mph 1014.3mb 81f 81f
5:38am 11 16 mph 1014.2mb 81f 81f
5:23am 13 18 mph 1014.2mb 81f 81f
5:08am 13 18 mph 1014.1mb 81f 81f
4:53am 13 18 mph 1014.1mb 81f 81f
4:08am 13 18 mph 1014.4mb 81f 81f
3:53am 11 16 mph 1014.4mb 81f 81f
3:38am 11 16 mph 1014.5mb 81f 81f
3:23am 11 13 mph 1014.7mb 81f 81f
3:08am 9 16 mph 1014.9mb 81f 81f
2:53am 11 16 mph 1015mb 81f 81f
2:08am 11 16 mph 1014.8mb 81f 81f
1:53am 11 16 mph 1015mb 81f 81f
1:38am 11 16 mph 1015.2mb 81f 81f
1:23am 11 13 mph 1015.2mb 81f 81f
1:08am 11 16 mph 1015.5mb 81f 81f
12:53am 11 16 mph 1015.2mb 81f 81f
12:38am 11 16 mph 1015.6mb 81f 81f
12:23am 9 13 mph 1015.8mb 81f 81f
12:08am 11 13 mph 1015.7mb 81f 81f
Tue 07/28 11:53pm 9 13 mph 1015.5mb 81f 81f
11:38pm 9 13 mph 1015.6mb 81f 81f
11:23pm 11 16 mph 1015.4mb 81f 81f
11:08pm 11 16 mph 1015.4mb 81f 81f
10:53pm 13 18 mph 1015.2mb 81f 81f